Temp
61 61 62 61 63 63 62 62 62 61 63 63 63 62 63 65 64 63 63 63 64 65 65 63 62 62 63 63 62 61 61 61 60 59 58 59 57 58 60 60 60 61 62 60 59 56 53 53 54 58 61 61 62 63 64 64 64 64 63 63 65 65 65
63 62 62 63 62 62 61 61 62 62 62 62 63 62 62 63 64 62 62 62 61 63 64 63 62 62 61 61 60 60 59 59 59 59 59 58 59 58 59 58 59 59 59 59 59 57 54 52 53 56 56 60 61 62 62 63 64 65 64 64 65 65 63
63 61 61 61 60 61 61 60 60 61 60 60 61 62 62 62 61 62 62 61 60 61 62 61 61 61 60 60 59 59 59 59 59 58 58 58 58 59 60 60 58 57 58 57 57 56 57 57 54 55 57 56 56 58 61 62 63 64 65 64 64 65 65
62 61 61 60 59 60 61 60 60 60 60 60 60 61 61 61 60 61 60 60 61 61 61 61 59 60 59 59 60 59 59 58 58 57 58 57 58 58 59 57 58 58 57 55 55 57 56 55 54 54 57 60 60 57 59 62 63 64 64 65 65 65 65
62 62 61 60 60 60 60 59 59 60 59 60 59 59 59 59 59 59 60 60 60 60 60 59 60 61 61 61 59 59 59 58 58 58 57 56 56 56 57 57 56 58 57 57 57 56 56 56 55 54 55 59 60 60 65 61 63 64 64 65 66 67 67
63 62 62 60 60 60 60 59 59 59 58 59 58 60 58 58 58 59 60 59 59 59 58 60 59 60 60 59 60 58 58 57 56 57 55 55 56 55 55 56 57 58 57 57 58 57 56 56 55 52 55 58 55 54 59 63 60 62 66 66 68 67 68
63 63 62 61 61 61 61 60 60 59 59 58 58 58 59 59 58 59 59 58 58 58 59 59 58 59 59 59 58 57 57 56 56 55 55 55 55 55 56 56 56 57 55 57 57 56 55 55 53 52 52 52 53 56 60 60 64 63 65 69 70 70 68
63 63 62 62 62 62 61 61 60 60 60 59 59 60 59 59 59 60 59 58 58 58 57 58 61 59 59 60 58 57 57 58 58 57 55 56 57 56 55 55 57 55 55 56 55 57 56 55 55 54 53 51 50 49 52 57 60 62 62 65 71 70 69
64 63 62 62 62 62 62 62 61 60 61 60 60 60 59 59 59 59 59 58 58 58 58 58 58 58 58 58 57 56 57 60 57 56 55 55 54 54 54 54 56 55 56 56 57 55 55 55 55 54 54 51 49 47 50 50 53 56 64 62 65 68 69
63 63 62 62 61 62 62 62 61 61 61 61 61 61 59 58 59 59 58 58 58 57 58 57 58 58 57 58 56 55 55 56 56 55 54 55 54 54 54 54 54 55 55 54 55 56 56 54 55 54 55 54 52 49 47 47 48 51 58 62 60 63 68
62 62 62 63 62 62 61 62 61 61 62 62 63 62 60 60 60 61 58 57 57 57 57 58 57 57 57 58 57 57 56 55 55 55 55 55 55 55 53 54 53 54 53 53 56 56 54 57 54 55 54 54 53 50 50 48 46 51 54 58 61 61 64
61 61 62 63 62 62 62 62 62 62 62 61 62 61 59 60 59 58 58 57 57 57 58 58 56 57 56 56 56 57 57 55 54 55 56 55 56 54 54 54 53 53 54 53 53 54 55 53 57 55 54 54 54 53 52 50 47 49 55 55 56 62 62
62 64 62 63 63 61 63 62 61 61 62 62 61 61 60 60 59 58 57 58 57 57 57 58 56 57 55 56 56 58 57 55 56 55 56 56 59 56 55 54 53 53 54 52 53 53 53 54 55 56 56 55 53 54 52 51 49 50 51 55 55 59 62
63 63 63 64 62 61 60 61 61 61 61 61 61 61 60 60 59 60 58 58 58 57 56 56 56 56 55 56 55 55 56 56 56 55 55 55 58 56 55 55 55 55 53 52 52 53 54 54 54 54 54 55 53 52 55 53 51 49 50 52 56 57 60
61 62 62 62 62 62 62 61 60 60 59 59 62 62 62 61 60 60 60 59 59 59 58 57 56 56 56 55 55 57 56 56 55 55 54 55 56 57 54 53 54 55 54 54 52 55 55 55 56 55 54 54 54 54 55 54 51 51 49 50 53 57 58
63 61 61 61 61 60 60 60 60 59 59 59 59 61 62 62 61 61 61 60 59 59 60 58 57 57 56 55 56 55 56 55 54 53 54 54 54 55 55 54 54 53 55 53 54 52 52 54 54 55 52 52 52 53 54 54 52 49 48 49 50 54 53
61 61 60 59 59 59 59 59 59 57 56 57 60 59 60 60 60 59 61 61 60 60 60 60 59 59 59 57 57 56 55 55 54 53 54 54 54 54 53 54 55 53 53 54 53 53 51 52 52 53 52 52 52 52 52 51 52 52 49 49 47 53 55
59 60 60 60 59 59 59 60 59 59 58 58 60 58 58 58 59 59 60 61 61 60 60 60 60 59 59 58 58 57 57 56 54 54 55 54 56 54 53 52 53 54 51 51 52 52 52 51 54 52 51 52 52 52 52 51 51 50 48 47 48 49 51
58 58 58 58 58 59 60 60 60 59 60 59 58 58 58 58 61 62 60 58 59 61 60 59 60 60 62 61 59 58 58 57 56 55 55 55 54 53 52 53 53 52 52 52 51 51 50 50 51 50 49 50 51 50 48 49 50 49 48 48 47 47 48
57 57 57 56 56 57 58 59 60 59 59 59 60 59 58 58 59 60 61 60 59 58 57 57 57 59 60 61 59 58 58 58 57 56 55 55 55 54 53 53 52 52 51 50 49 48 47 47 49 47 48 47 48 47 47 47 48 48 47 47 46 47 48
56 56 56 56 56 56 58 58 58 59 58 58 58 58 59 59 60 60 59 59 57 56 56 57 58 59 60 60 58 58 59 59 59 57 56 56 55 55 55 54 53 52 51 49 49 47 47 46 45 45 45 46 45 45 44 45 45 45 45 45 45 44 45
54 54 54 55 56 57 58 59 59 58 57 58 58 58 58 58 58 58 58 57 58 56 57 58 59 59 60 60 60 59 60 60 59 57 56 55 54 55 55 55 53 51 53 54 51 50 50 49 47 46 44 44 45 43 43 43 44 42 43 43 43 44 43
53 53 54 54 54 53 57 59 58 57 57 57 58 58 57 58 58 58 58 58 57 56 56 58 58 54 55 59 58 61 59 60 60 58 57 55 53 54 56 56 56 56 53 51 48 45 45 47 48 47 45 45 44 43 43 42 41 42 42 41 41 41 41
53 54 53 53 53 55 55 57 58 58 57 57 57 57 57 57 57 57 57 56 56 56 57 59 52 48 48 49 57 57 58 58 59 58 57 55 53 54 55 56 55 53 53 51 48 43 43 44 44 45 46 47 47 44 43 42 41 41 41 42 42 41 40
54 55 55 55 54 55 55 55 55 57 57 56 57 56 56 57 57 57 57 57 56 57 57 53 48 46 46 46 48 57 58 58 56 56 57 56 55 54 55 55 53 53 53 52 51 47 45 43 42 42 41 42 42 42 44 44 43 41 40 41 40 41 40
58 57 58 57 54 54 54 54 54 55 55 57 57 57 57 57 57 57 56 56 56 56 55 51 46 46 45 46 45 53 58 58 57 55 55 55 54 54 54 53 52 52 54 54 53 49 47 46 44 42 42 42 42 41 39 38 40 44 42 41 40 41 41
56 55 53 53 52 52 53 53 54 53 53 53 54 54 56 56 57 56 56 56 55 54 53 51 46 45 46 45 44 49 56 56 56 56 56 56 56 54 53 54 52 51 52 53 52 51 49 47 46 44 41 41 41 43 42 40 40 40 41 42 41 41 43
53 54 52 51 50 52 52 52 52 51 51 52 54 53 53 53 53 53 53 54 54 52 53 45 43 44 44 43 44 48 53 54 54 53 54 54 51 50 52 53 53 52 52 51 51 51 50 48 44 44 41 41 42 42 42 42 41 41 42 42 41 42 43
53 53 53 51 52 52 51 51 52 50 51 49 51 51 51 52 52 52 53 51 50 48 43 41 41 42 44 44 47 51 52 51 51 50 51 51 50 50 51 52 52 51 51 51 49 46 48 49 45 44 43 42 41 41 42 45 45 45 45 44 43 43 43
52 53 53 53 54 52 52 51 50 49 51 48 49 50 52 51 49 50 49 48 48 44 41 41 41 43 43 45 47 50 51 50 50 50 49 49 49 51 52 52 51 50 50 51 46 43 44 47 46 44 43 41 41 41 42 43 44 43 42 41 41 41 40
53 53 51 52 51 50 50 50 50 50 52 49 49 50 50 51 51 50 49 48 47 44 40 41 41 42 44 45 47 49 50 49 48 48 50 50 51 52 54 55 54 52 48 44 38 37 38 41 39 38 38 38 38 37 38 39 42 42 41 42 41 41 41
52 51 51 52 52 52 51 51 50 50 49 49 48 50 51 49 44 45 46 47 48 44 41 42 41 42 43 45 49 50 50 49 48 46 48 49 51 51 47 42 43 43 41 39 38 38 38 40 38 37 37 36 36 35 37 36 36 36 37 38 38 39 39
53 53 52 50 49 51 48 51 51 50 48 48 50 46 45 45 43 42 44 45 45 44 42 40 41 41 42 43 45 50 49 47 46 46 47 49 48 48 45 41 40 37 37 38 38 37 38 39 38 38 37 36 35 36 37 36 37 36 35 36 35 37 37
51 49 50 51 51 49 49 50 49 50 50 49 47 42 44 43 44 42 41 41 42 42 44 41 39 41 42 43 43 45 47 45 44 44 45 45 46 45 43 40 40 39 38 37 37 38 39 39 39 37 35 35 36 38 38 35 37 39 35 35 36 36 36
50 52 49 49 49 49 48 48 49 50 49 47 43 43 41 41 42 41 41 40 40 40 43 43 41 41 41 42 42 43 44 44 45 46 44 43 44 45 45 41 40 38 37 37 38 39 39 39 37 37 36 37 37 37 37 37 36 35 35 35 34 34 35
49 52 52 49 48 48 47 49 49 48 49 45 43 43 41 41 41 40 39 39 38 39 39 41 41 41 40 40 40 41 41 42 42 46 44 44 45 45 45 42 41 39 38 38 38 38 38 37 38 36 37 37 37 37 37 35 34 34 32 33 34 33 34
50 50 49 50 49 47 48 48 47 49 45 44 43 41 40 41 40 40 39 38 40 39 39 39 40 41 41 40 40 39 38 39 41 44 45 44 44 45 44 43 42 39 38 38 38 38 38 38 36 37 37 37 37 37 34 34 32 33 33 32 32 34 36
MSLP
1016.26 1016.54 1016.66 1016.86 1016.90 1017.06 1017.30 1017.50 1017.66 1017.74 1017.70 1017.74 1017.82 1017.86 1017.90 1017.94 1018.02 1018.10 1018.02 1018.10 1018.26 1018.26 1018.22 1018.38 1018.46 1018.42 1018.42 1018.54 1018.54 1018.62 1018.78 1018.78 1018.74 1018.98 1019.38 1019.46 1019.54 1019.86 1019.66 1019.74 1019.70 1019.78 1019.78 1019.74 1019.82 1020.14 1020.38 1020.54 1020.22 1019.70 1019.50 1019.42 1019.38 1019.30 1019.14 1019.10 1019.06 1018.98 1018.94 1018.86 1018.82 1018.74 1018.66
1016.06 1016.30 1016.42 1016.58 1016.82 1017.06 1017.42 1017.58 1017.58 1017.70 1017.78 1017.82 1017.86 1017.98 1017.98 1018.06 1018.10 1018.22 1018.22 1018.30 1018.38 1018.42 1018.42 1018.50 1018.54 1018.54 1018.62 1018.66 1018.74 1018.82 1018.86 1018.82 1018.78 1018.90 1019.10 1019.26 1019.26 1019.46 1019.66 1019.78 1019.94 1020.14 1019.98 1019.98 1020.02 1020.02 1020.34 1020.62 1020.46 1020.26 1019.98 1019.58 1019.58 1019.38 1019.22 1019.22 1019.10 1018.86 1018.78 1018.70 1018.62 1018.62 1018.46
1015.98 1016.22 1016.34 1016.62 1016.82 1017.06 1017.38 1017.54 1017.66 1017.82 1017.86 1017.94 1017.98 1017.98 1018.06 1018.10 1018.14 1018.18 1018.26 1018.34 1018.46 1018.50 1018.58 1018.66 1018.70 1018.74 1018.78 1018.82 1018.82 1018.82 1018.82 1018.94 1019.06 1019.06 1019.14 1019.18 1019.18 1019.22 1019.30 1019.38 1019.78 1020.10 1020.18 1020.22 1020.22 1020.18 1020.26 1020.30 1020.58 1020.42 1020.14 1020.02 1019.90 1019.30 1019.18 1019.14 1018.94 1018.74 1018.58 1018.34 1018.38 1018.46 1018.42
1015.86 1016.10 1016.42 1016.70 1016.82 1016.98 1017.26 1017.50 1017.66 1017.82 1017.82 1018.02 1018.02 1018.14 1018.18 1018.22 1018.26 1018.30 1018.38 1018.46 1018.50 1018.62 1018.70 1018.74 1018.82 1018.94 1018.98 1018.98 1019.02 1019.02 1019.10 1019.18 1019.26 1019.30 1019.30 1019.42 1019.38 1019.34 1019.38 1019.46 1019.66 1019.82 1020.06 1020.34 1020.34 1020.22 1020.26 1020.42 1020.42 1020.34 1020.18 1019.86 1019.66 1019.42 1019.06 1018.90 1018.82 1018.66 1018.58 1018.46 1018.22 1018.10 1018.26
1015.66 1015.98 1016.22 1016.50 1016.70 1016.82 1017.06 1017.46 1017.70 1017.86 1018.06 1018.10 1018.22 1018.34 1018.38 1018.34 1018.42 1018.50 1018.54 1018.62 1018.70 1018.74 1018.86 1018.90 1018.98 1019.02 1019.10 1019.18 1019.26 1019.34 1019.38 1019.38 1019.42 1019.46 1019.54 1019.58 1019.62 1019.66 1019.70 1019.78 1019.86 1019.94 1019.98 1020.06 1020.10 1020.14 1020.18 1020.30 1020.34 1020.46 1020.34 1019.94 1019.58 1019.50 1018.82 1018.74 1018.62 1018.74 1018.62 1018.42 1018.22 1017.98 1017.74
1015.58 1015.74 1016.02 1016.34 1016.50 1016.66 1016.94 1017.34 1017.62 1017.90 1018.10 1018.26 1018.34 1018.42 1018.50 1018.50 1018.54 1018.70 1018.78 1018.82 1018.90 1018.94 1018.94 1018.98 1019.02 1019.06 1019.18 1019.30 1019.42 1019.50 1019.58 1019.62 1019.66 1019.66 1019.74 1019.86 1019.82 1019.90 1020.06 1020.02 1019.94 1019.98 1020.10 1020.02 1020.06 1020.14 1020.26 1020.26 1020.38 1020.34 1020.30 1020.06 1020.22 1019.94 1019.26 1018.90 1018.86 1018.42 1018.42 1018.42 1018.18 1018.06 1018.26
1015.54 1015.62 1015.90 1016.18 1016.34 1016.42 1016.70 1017.06 1017.42 1017.70 1017.94 1018.14 1018.30 1018.38 1018.46 1018.46 1018.62 1018.78 1018.86 1018.94 1018.98 1019.02 1019.06 1019.10 1019.18 1019.26 1019.34 1019.50 1019.58 1019.66 1019.78 1019.82 1019.82 1019.86 1019.86 1019.86 1019.86 1019.90 1019.90 1019.98 1020.06 1020.10 1020.18 1020.18 1020.26 1020.26 1020.34 1020.34 1020.54 1020.70 1020.58 1020.30 1020.22 1020.06 1019.74 1019.30 1019.02 1018.98 1018.82 1018.38 1018.02 1017.78 1018.10
1015.46 1015.62 1015.86 1015.98 1016.14 1016.30 1016.54 1016.86 1017.22 1017.46 1017.74 1018.06 1018.18 1018.26 1018.34 1018.46 1018.62 1018.74 1018.86 1019.02 1019.14 1019.18 1019.22 1019.26 1019.38 1019.46 1019.50 1019.62 1019.74 1019.82 1019.86 1019.90 1019.98 1020.02 1020.06 1020.02 1020.10 1020.06 1020.10 1020.14 1020.18 1020.22 1020.26 1020.26 1020.30 1020.38 1020.34 1020.42 1020.50 1020.54 1020.62 1020.66 1020.34 1020.26 1020.22 1019.86 1019.70 1019.46 1019.86 1019.06 1018.62 1018.62 1018.66
1015.34 1015.58 1015.82 1015.98 1016.10 1016.10 1016.34 1016.58 1016.98 1017.26 1017.46 1017.78 1018.02 1018.18 1018.34 1018.46 1018.62 1018.78 1018.90 1019.06 1019.14 1019.22 1019.30 1019.34 1019.46 1019.62 1019.70 1019.82 1019.94 1019.98 1020.06 1020.14 1020.22 1020.22 1020.30 1020.30 1020.30 1020.30 1020.34 1020.38 1020.34 1020.46 1020.46 1020.46 1020.46 1020.46 1020.42 1020.42 1020.38 1020.42 1020.50 1020.74 1020.94 1021.02 1020.62 1020.30 1020.18 1019.94 1019.70 1019.90 1019.22 1018.98 1019.02
1015.34 1015.54 1015.78 1015.94 1016.10 1016.18 1016.26 1016.42 1016.78 1017.02 1017.26 1017.54 1017.86 1018.02 1018.30 1018.46 1018.62 1018.78 1018.98 1019.10 1019.18 1019.26 1019.34 1019.46 1019.54 1019.66 1019.78 1019.90 1020.02 1020.18 1020.26 1020.26 1020.30 1020.34 1020.38 1020.46 1020.46 1020.42 1020.46 1020.54 1020.54 1020.54 1020.58 1020.54 1020.50 1020.50 1020.46 1020.42 1020.42 1020.42 1020.46 1020.62 1020.82 1021.06 1021.18 1020.90 1020.58 1020.46 1019.82 1020.06 1020.18 1019.54 1019.22
1015.30 1015.46 1015.62 1015.78 1015.98 1016.22 1016.34 1016.38 1016.62 1017.02 1017.18 1017.38 1017.58 1017.82 1018.10 1018.38 1018.58 1018.74 1018.98 1019.14 1019.22 1019.30 1019.38 1019.46 1019.58 1019.66 1019.82 1019.94 1020.06 1020.14 1020.22 1020.22 1020.34 1020.42 1020.46 1020.50 1020.54 1020.50 1020.54 1020.62 1020.66 1020.66 1020.66 1020.66 1020.62 1020.62 1020.54 1020.50 1020.54 1020.54 1020.54 1020.54 1020.58 1020.90 1021.10 1021.18 1021.02 1020.42 1020.22 1019.86 1019.90 1020.10 1019.66
1015.30 1015.34 1015.50 1015.66 1015.86 1016.10 1016.34 1016.34 1016.50 1016.78 1017.06 1017.30 1017.58 1017.86 1018.10 1018.38 1018.62 1018.82 1018.98 1019.18 1019.34 1019.42 1019.46 1019.54 1019.62 1019.66 1019.86 1020.02 1020.10 1020.22 1020.22 1020.30 1020.42 1020.50 1020.50 1020.50 1020.54 1020.58 1020.62 1020.66 1020.70 1020.70 1020.66 1020.66 1020.62 1020.62 1020.58 1020.50 1020.50 1020.50 1020.50 1020.54 1020.58 1020.66 1020.86 1021.02 1021.26 1020.42 1020.14 1020.10 1019.78 1019.66 1019.62
1015.38 1015.26 1015.46 1015.62 1015.90 1016.06 1016.18 1016.34 1016.46 1016.78 1017.02 1017.26 1017.54 1017.78 1018.10 1018.34 1018.58 1018.82 1019.02 1019.22 1019.38 1019.50 1019.62 1019.70 1019.78 1019.82 1019.98 1020.06 1020.18 1020.30 1020.30 1020.42 1020.54 1020.58 1020.58 1020.54 1020.58 1020.58 1020.66 1020.70 1020.66 1020.66 1020.66 1020.70 1020.66 1020.62 1020.62 1020.58 1020.50 1020.46 1020.46 1020.54 1020.62 1020.66 1020.66 1020.90 1021.10 1020.90 1020.34 1020.26 1020.02 1019.74 1019.50
1015.38 1015.34 1015.46 1015.58 1015.86 1016.06 1016.18 1016.30 1016.42 1016.58 1016.90 1017.22 1017.42 1017.70 1017.94 1018.22 1018.50 1018.70 1018.98 1019.18 1019.26 1019.42 1019.62 1019.74 1019.86 1019.90 1020.06 1020.22 1020.30 1020.38 1020.38 1020.46 1020.58 1020.58 1020.58 1020.70 1020.66 1020.70 1020.78 1020.82 1020.74 1020.74 1020.70 1020.74 1020.74 1020.74 1020.70 1020.62 1020.62 1020.58 1020.58 1020.58 1020.62 1020.66 1020.66 1020.82 1021.02 1020.94 1020.54 1020.22 1020.14 1020.02 1019.70
1015.30 1015.42 1015.62 1015.78 1015.90 1016.02 1016.14 1016.34 1016.50 1016.74 1017.02 1017.18 1017.14 1017.34 1017.54 1017.86 1018.18 1018.54 1018.82 1019.06 1019.18 1019.26 1019.38 1019.54 1019.74 1019.86 1020.06 1020.26 1020.30 1020.46 1020.50 1020.54 1020.66 1020.66 1020.66 1020.70 1020.74 1020.70 1020.74 1020.90 1020.94 1020.86 1020.78 1020.86 1020.86 1020.82 1020.78 1020.66 1020.62 1020.74 1020.78 1020.78 1020.82 1020.82 1020.82 1020.78 1020.78 1020.86 1020.78 1020.46 1020.26 1020.06 1019.94
1015.50 1015.74 1015.94 1016.14 1016.30 1016.46 1016.50 1016.58 1016.70 1016.94 1017.18 1017.34 1017.42 1017.30 1017.30 1017.50 1017.86 1018.26 1018.62 1018.82 1019.06 1019.22 1019.30 1019.46 1019.58 1019.70 1019.86 1020.10 1020.22 1020.34 1020.42 1020.46 1020.58 1020.74 1020.74 1020.74 1020.78 1020.78 1020.82 1020.94 1021.02 1021.02 1020.94 1020.98 1020.94 1020.94 1020.86 1020.82 1020.82 1020.82 1020.86 1020.90 1020.90 1020.98 1020.90 1020.90 1021.02 1021.10 1021.02 1020.90 1020.58 1020.42 1020.22
1015.66 1015.86 1016.06 1016.26 1016.46 1016.50 1016.50 1016.62 1016.66 1016.78 1017.06 1017.26 1017.30 1017.34 1017.38 1017.54 1017.74 1018.10 1018.30 1018.54 1018.74 1018.98 1019.18 1019.30 1019.42 1019.46 1019.58 1019.78 1019.98 1020.14 1020.30 1020.34 1020.46 1020.62 1020.66 1020.66 1020.82 1020.82 1020.86 1020.98 1021.02 1021.06 1021.06 1021.14 1021.18 1021.10 1021.10 1021.06 1021.02 1020.98 1020.98 1020.98 1021.02 1021.06 1021.06 1021.06 1021.06 1021.10 1020.98 1021.02 1020.70 1020.66 1020.34
1015.38 1015.38 1015.54 1015.78 1016.14 1016.38 1016.30 1016.46 1016.54 1016.70 1016.86 1017.22 1017.66 1017.66 1017.46 1017.22 1017.38 1017.58 1017.90 1018.10 1018.34 1018.58 1018.78 1018.94 1019.06 1019.10 1019.14 1019.26 1019.50 1019.78 1019.98 1020.14 1020.30 1020.50 1020.54 1020.54 1020.66 1020.78 1020.86 1020.94 1020.98 1021.10 1021.14 1021.26 1021.30 1021.26 1021.30 1021.26 1021.22 1021.22 1021.26 1021.26 1021.18 1021.26 1021.26 1021.22 1021.18 1021.22 1021.26 1021.18 1020.98 1020.58 1020.54
1016.14 1016.18 1016.38 1016.38 1016.22 1016.22 1016.26 1016.18 1016.26 1016.54 1016.94 1017.42 1017.74 1017.66 1017.18 1016.94 1016.90 1017.10 1017.42 1017.78 1018.06 1018.26 1018.54 1018.78 1018.86 1018.82 1018.66 1018.70 1018.98 1019.30 1019.54 1019.78 1020.02 1020.26 1020.42 1020.46 1020.62 1020.78 1020.86 1020.86 1020.94 1021.06 1021.14 1021.22 1021.34 1021.46 1021.46 1021.46 1021.50 1021.58 1021.62 1021.62 1021.58 1021.54 1021.50 1021.42 1021.42 1021.38 1021.38 1021.34 1021.30 1021.02 1020.66
1016.26 1016.34 1016.34 1016.30 1016.34 1016.42 1016.34 1016.34 1016.22 1016.14 1016.50 1017.06 1017.30 1017.26 1017.02 1016.86 1016.90 1017.14 1017.38 1017.70 1017.94 1018.30 1018.46 1018.34 1018.26 1018.30 1018.46 1018.54 1018.66 1018.98 1019.22 1019.42 1019.66 1019.90 1020.10 1020.26 1020.38 1020.50 1020.62 1020.74 1020.86 1020.98 1021.10 1021.26 1021.42 1021.54 1021.66 1021.74 1021.82 1021.90 1021.98 1021.90 1021.90 1021.86 1021.82 1021.86 1021.86 1021.82 1021.82 1021.82 1021.54 1021.34 1021.14
1016.22 1016.38 1016.46 1016.46 1016.46 1016.54 1016.58 1016.54 1016.58 1016.58 1016.78 1017.06 1017.18 1017.18 1017.02 1016.94 1016.98 1017.22 1017.46 1017.66 1017.82 1018.02 1018.18 1018.18 1018.10 1018.06 1018.30 1018.46 1018.70 1018.82 1018.86 1019.02 1019.22 1019.42 1019.66 1019.90 1020.06 1020.18 1020.34 1020.54 1020.70 1020.86 1021.06 1021.30 1021.46 1021.70 1021.74 1021.78 1021.94 1021.94 1022.14 1022.10 1022.18 1022.14 1022.18 1022.18 1022.14 1022.18 1022.10 1022.10 1022.10 1021.90 1021.74
1016.10 1016.14 1016.18 1016.26 1016.26 1016.18 1016.30 1016.34 1016.46 1016.62 1016.82 1016.90 1016.90 1016.90 1016.90 1016.94 1017.06 1017.18 1017.42 1017.58 1017.74 1017.86 1018.02 1018.10 1018.06 1017.98 1018.02 1018.14 1018.38 1018.62 1018.62 1018.66 1018.82 1019.14 1019.38 1019.62 1019.82 1019.98 1020.14 1020.34 1020.58 1020.82 1021.06 1021.30 1021.46 1021.58 1021.74 1021.86 1021.90 1021.90 1022.14 1022.22 1022.22 1022.22 1022.26 1022.30 1022.38 1022.38 1022.38 1022.42 1022.26 1022.18 1022.02
1015.90 1015.98 1016.02 1016.06 1016.14 1016.30 1016.34 1016.38 1016.46 1016.62 1016.74 1016.78 1016.78 1016.86 1016.94 1017.02 1017.02 1017.02 1017.14 1017.30 1017.46 1017.66 1017.82 1017.86 1017.90 1017.82 1017.86 1017.94 1018.14 1018.38 1018.62 1018.58 1018.66 1018.86 1019.14 1019.46 1019.70 1019.86 1019.98 1020.14 1020.42 1020.70 1021.02 1021.22 1021.42 1021.58 1021.74 1021.82 1021.94 1022.02 1022.06 1022.14 1022.22 1022.22 1022.26 1022.34 1022.38 1022.46 1022.54 1022.54 1022.50 1022.46 1022.38
1015.86 1015.86 1015.90 1015.94 1016.02 1016.10 1016.26 1016.30 1016.38 1016.42 1016.46 1016.54 1016.62 1016.66 1016.86 1016.98 1016.94 1016.90 1016.98 1017.14 1017.34 1017.50 1017.50 1017.50 1017.54 1017.54 1017.58 1017.78 1017.90 1018.06 1018.42 1018.62 1018.58 1018.70 1018.90 1019.18 1019.38 1019.58 1019.78 1019.94 1020.30 1020.58 1020.86 1021.18 1021.34 1021.50 1021.62 1021.74 1021.90 1021.98 1022.06 1022.18 1022.30 1022.22 1022.26 1022.30 1022.34 1022.46 1022.62 1022.58 1022.58 1022.58 1022.50
1015.78 1015.82 1015.82 1015.86 1015.90 1015.98 1016.06 1016.22 1016.30 1016.34 1016.42 1016.50 1016.50 1016.58 1016.74 1016.74 1016.74 1016.78 1016.90 1016.98 1017.10 1017.10 1017.10 1017.06 1017.14 1017.26 1017.38 1017.58 1017.78 1017.82 1018.02 1018.26 1018.42 1018.54 1018.66 1018.86 1019.10 1019.34 1019.62 1019.94 1020.30 1020.54 1020.78 1020.98 1021.22 1021.38 1021.46 1021.66 1021.82 1021.94 1022.06 1022.14 1022.18 1022.34 1022.38 1022.34 1022.34 1022.46 1022.54 1022.58 1022.58 1022.54 1022.46
1015.34 1015.38 1015.50 1015.66 1015.78 1015.90 1015.94 1015.98 1016.10 1016.22 1016.34 1016.30 1016.34 1016.54 1016.54 1016.62 1016.66 1016.66 1016.70 1016.74 1016.74 1016.74 1016.74 1016.74 1016.98 1017.18 1017.26 1017.30 1017.42 1017.62 1017.78 1017.90 1018.10 1018.34 1018.54 1018.78 1019.06 1019.30 1019.54 1019.86 1020.26 1020.50 1020.62 1020.78 1020.98 1021.22 1021.38 1021.58 1021.78 1021.94 1022.14 1022.22 1022.22 1022.26 1022.22 1022.34 1022.46 1022.54 1022.54 1022.78 1022.74 1022.58 1022.46
1015.46 1015.58 1015.58 1015.58 1015.62 1015.70 1015.78 1015.86 1015.94 1015.94 1015.90 1015.90 1016.06 1016.26 1016.30 1016.34 1016.30 1016.30 1016.26 1016.30 1016.34 1016.50 1016.62 1016.58 1016.74 1016.94 1017.06 1017.22 1017.30 1017.50 1017.54 1017.74 1017.98 1018.30 1018.50 1018.70 1018.90 1019.14 1019.46 1019.74 1020.18 1020.42 1020.62 1020.74 1020.90 1021.10 1021.26 1021.42 1021.58 1021.98 1022.26 1022.26 1022.06 1021.98 1022.06 1022.10 1022.14 1022.30 1022.54 1022.70 1022.70 1022.54 1022.10
1015.62 1015.62 1015.58 1015.66 1015.74 1015.86 1015.94 1015.98 1015.94 1015.90 1015.86 1015.90 1015.90 1015.82 1015.78 1015.82 1015.82 1015.74 1015.86 1015.98 1016.22 1016.42 1016.58 1016.94 1017.06 1017.18 1017.30 1017.42 1017.62 1017.54 1017.70 1017.94 1018.14 1018.42 1018.66 1018.82 1019.26 1019.42 1019.54 1019.82 1020.02 1020.30 1020.54 1020.66 1020.90 1021.06 1021.18 1021.26 1021.54 1021.70 1021.86 1021.86 1021.78 1021.70 1021.74 1021.82 1021.98 1022.06 1022.14 1022.34 1022.42 1022.30 1022.06
1015.50 1015.54 1015.62 1015.70 1015.82 1015.90 1015.98 1016.02 1015.98 1015.94 1015.94 1015.90 1015.82 1015.78 1015.78 1015.74 1015.70 1015.70 1015.74 1015.98 1016.26 1016.46 1016.78 1017.22 1017.34 1017.30 1017.38 1017.46 1017.46 1017.66 1017.86 1018.10 1018.34 1018.62 1018.86 1019.02 1019.26 1019.38 1019.62 1019.82 1019.98 1020.10 1020.26 1020.50 1020.70 1020.82 1020.86 1021.06 1021.30 1021.50 1021.62 1021.66 1021.70 1021.70 1021.66 1021.62 1021.62 1021.74 1021.82 1021.90 1021.98 1022.06 1022.06
1015.58 1015.62 1015.66 1015.74 1015.82 1015.94 1015.98 1015.98 1015.98 1016.02 1016.02 1015.98 1015.94 1015.90 1015.74 1015.62 1015.62 1015.62 1015.86 1016.14 1016.30 1016.58 1017.30 1017.78 1017.70 1017.58 1017.50 1017.50 1017.58 1017.94 1018.10 1018.38 1018.66 1018.86 1019.06 1019.14 1019.22 1019.38 1019.54 1019.66 1019.78 1019.98 1020.14 1020.22 1020.42 1020.70 1020.98 1021.10 1021.18 1021.38 1021.58 1021.70 1021.82 1021.78 1021.74 1021.74 1021.74 1021.82 1021.98 1022.14 1022.18 1022.18 1022.14
1015.46 1015.54 1015.66 1015.78 1015.86 1015.94 1015.94 1015.98 1015.98 1016.02 1016.06 1016.02 1015.98 1015.90 1015.82 1015.66 1015.70 1015.70 1015.82 1016.10 1016.38 1016.78 1017.54 1018.02 1018.02 1017.98 1017.94 1017.94 1017.98 1018.18 1018.42 1018.70 1018.94 1018.98 1019.06 1019.18 1019.30 1019.42 1019.50 1019.62 1019.78 1020.06 1020.38 1020.90 1021.30 1021.42 1021.50 1021.50 1021.66 1021.90 1022.06 1022.10 1022.06 1022.02 1021.98 1022.10 1022.10 1022.06 1022.06 1022.06 1022.02 1021.94 1021.82
1015.58 1015.62 1015.66 1015.70 1015.74 1015.82 1015.86 1015.86 1015.90 1015.98 1015.98 1016.02 1016.02 1015.90 1015.82 1015.86 1015.98 1016.02 1016.02 1016.38 1016.70 1016.82 1017.70 1018.06 1018.10 1018.02 1018.06 1018.06 1018.14 1018.34 1018.50 1018.66 1018.82 1019.02 1019.10 1019.30 1019.58 1019.86 1020.26 1020.50 1020.50 1020.66 1021.02 1021.46 1021.54 1021.74 1021.78 1021.86 1022.06 1022.26 1022.34 1022.34 1022.26 1022.30 1022.18 1022.22 1022.26 1022.26 1022.22 1022.18 1022.10 1022.02 1021.90
1015.34 1015.42 1015.50 1015.50 1015.58 1015.66 1015.74 1015.82 1015.82 1015.90 1015.98 1016.02 1016.02 1016.06 1016.02 1016.18 1016.30 1016.78 1016.90 1016.86 1017.18 1017.38 1017.62 1018.22 1018.30 1018.10 1018.14 1018.22 1018.30 1018.46 1018.66 1018.82 1019.22 1019.54 1019.74 1019.82 1019.90 1020.38 1020.82 1021.22 1021.26 1021.34 1021.46 1021.62 1021.78 1021.90 1021.98 1022.02 1022.06 1022.18 1022.26 1022.26 1022.30 1022.22 1022.18 1022.22 1022.22 1022.26 1022.18 1022.14 1022.06 1022.02 1021.90
1015.34 1015.34 1015.38 1015.38 1015.46 1015.54 1015.62 1015.66 1015.74 1015.82 1015.90 1015.94 1016.14 1016.34 1016.50 1016.86 1017.06 1017.34 1017.50 1017.58 1017.66 1017.78 1017.78 1018.06 1018.46 1018.26 1018.38 1018.42 1018.50 1018.58 1019.06 1019.30 1019.50 1019.58 1019.70 1019.90 1020.02 1020.26 1020.74 1021.34 1021.62 1021.54 1021.54 1021.70 1021.78 1021.90 1022.02 1022.06 1022.14 1022.18 1022.26 1022.26 1022.26 1022.06 1022.10 1022.18 1022.10 1022.02 1022.06 1021.98 1021.90 1021.82 1021.66
1015.26 1015.26 1015.26 1015.34 1015.42 1015.46 1015.54 1015.58 1015.62 1015.70 1015.82 1016.02 1016.30 1016.82 1017.26 1017.42 1017.54 1017.78 1017.98 1018.10 1018.18 1018.26 1018.42 1018.18 1018.38 1018.50 1018.54 1018.74 1018.90 1019.02 1019.30 1019.62 1019.54 1019.46 1019.66 1019.90 1020.02 1020.22 1020.66 1021.18 1021.58 1021.70 1021.66 1021.70 1021.78 1021.86 1021.90 1021.98 1022.10 1022.18 1022.14 1022.10 1022.02 1022.02 1021.98 1021.98 1021.98 1021.98 1021.98 1021.90 1021.78 1021.62 1021.38
1015.14 1015.14 1015.14 1015.18 1015.26 1015.30 1015.34 1015.34 1015.42 1015.58 1015.78 1016.22 1016.62 1017.14 1017.42 1017.66 1017.82 1018.14 1018.38 1018.58 1018.66 1018.78 1018.90 1018.94 1018.78 1018.78 1018.86 1018.90 1019.10 1019.34 1019.54 1019.74 1019.74 1019.70 1019.78 1020.06 1020.30 1020.50 1020.74 1021.14 1021.46 1021.62 1021.66 1021.66 1021.70 1021.78 1021.86 1021.94 1022.02 1022.02 1021.90 1021.86 1021.82 1021.74 1021.82 1021.94 1021.90 1021.90 1021.82 1021.70 1021.58 1021.38 1021.06
1015.06 1015.06 1015.02 1015.06 1015.14 1015.18 1015.18 1015.18 1015.30 1015.42 1015.74 1016.26 1016.86 1017.30 1017.70 1017.86 1018.02 1018.22 1018.50 1018.78 1018.98 1019.06 1019.18 1019.22 1019.30 1019.18 1019.10 1019.14 1019.34 1019.50 1019.74 1019.86 1019.90 1019.94 1020.02 1020.34 1020.66 1020.94 1021.22 1021.38 1021.46 1021.54 1021.62 1021.58 1021.54 1021.62 1021.66 1021.74 1021.78 1021.74 1021.78 1021.78 1021.70 1021.74 1021.82 1021.82 1021.74 1021.62 1021.54 1021.42 1021.26 1021.02 1020.70
Wind_Speed
7 8 8 7 7 6 7 5 5 4 4 4 4 4 4 5 6 6 6 7 6 5 6 6 5 4 5 3 2 3 3 3 4 5 4 4 4 2 3 3 3 2 0 2 2 2 2 1 1 2 2 3 3 4 5 4 4 4 3 3 3 1 1
8 8 7 7 7 7 7 5 6 5 6 5 5 5 5 5 5 5 5 5 5 5 6 6 5 6 6 5 5 5 3 3 2 2 4 3 3 3 4 2 3 2 1 2 2 1 1 1 2 1 2 1 2 5 4 2 4 4 4 4 2 2 2
8 7 7 7 6 7 8 7 7 7 6 6 5 5 5 5 5 5 5 6 5 5 5 5 5 6 5 5 5 5 5 6 5 4 3 2 2 2 2 2 2 3 1 1 1 0 0 0 1 2 2 3 4 3 3 5 6 6 6 5 4 4 4
9 9 8 7 7 7 8 7 7 6 6 6 6 5 5 5 5 4 5 4 4 4 4 5 4 4 4 4 5 7 7 6 6 6 6 5 4 5 5 5 6 5 4 2 2 2 3 1 1 2 2 3 2 3 1 6 6 6 5 4 6 7 6
10 9 10 9 8 8 7 8 7 7 6 6 5 6 4 4 4 4 4 5 5 5 5 4 4 5 6 6 6 6 6 5 5 6 5 6 6 6 6 6 5 5 4 4 1 2 3 1 1 1 3 3 1 1 3 1 3 4 4 7 7 6 6
9 10 9 8 7 8 7 8 8 7 7 6 5 5 4 4 4 5 5 5 5 4 4 5 4 5 5 5 5 5 5 5 4 5 6 4 5 5 4 3 5 5 4 3 4 4 3 4 5 5 3 1 1 3 3 1 2 2 4 6 6 4 2
9 9 8 8 7 7 7 8 8 7 7 7 6 6 5 4 4 5 4 4 4 4 4 4 4 4 4 4 4 5 4 3 4 4 4 4 4 4 4 6 5 5 4 5 4 5 5 5 4 4 3 3 2 3 2 3 4 4 6 6 6 4 4
8 8 7 7 7 8 7 8 7 7 7 6 7 5 4 5 5 5 5 5 4 4 4 4 5 5 4 5 4 4 4 4 5 5 4 5 5 5 5 4 5 5 4 4 5 4 3 3 3 2 4 6 6 4 5 2 3 4 5 4 7 8 7
7 7 6 6 6 6 7 8 8 7 7 7 6 5 4 5 5 5 5 5 5 4 3 3 4 4 4 5 4 3 3 2 4 4 3 4 3 4 5 4 6 4 5 4 4 4 4 3 3 3 4 4 4 4 4 4 4 2 4 5 4 8 8
8 8 7 6 5 5 6 6 8 8 7 8 7 6 5 5 5 5 4 4 4 4 3 3 4 4 4 4 3 3 4 3 4 3 3 4 4 4 4 4 4 6 4 3 3 3 3 3 3 3 1 2 2 3 2 5 3 2 3 4 3 4 7
6 6 7 7 5 6 5 5 7 7 8 8 8 6 6 6 5 5 5 4 4 4 3 3 4 4 4 5 4 4 3 3 3 3 3 3 3 2 3 4 3 4 3 3 1 0 1 1 2 3 3 3 3 4 1 1 3 1 3 3 2 1 3
4 5 6 6 5 6 6 5 6 8 7 7 7 6 5 6 5 4 5 4 4 3 2 2 4 4 3 4 4 5 4 4 3 3 1 3 1 2 3 4 3 3 2 3 3 1 0 2 1 1 2 2 2 2 1 1 2 4 3 6 3 3 4
4 5 5 7 6 5 6 5 5 7 8 7 7 7 6 5 5 5 4 5 4 3 2 1 3 4 3 4 4 5 4 3 4 3 2 1 1 1 1 1 2 2 1 3 3 3 3 2 1 1 0 1 2 0 2 1 1 5 3 3 6 6 8
4 4 5 7 5 4 4 5 5 5 7 7 7 7 6 6 6 6 5 5 5 4 4 3 2 3 2 2 2 4 4 3 4 4 3 1 1 1 1 1 1 1 2 3 3 3 3 3 2 2 1 1 2 2 1 1 1 4 4 2 4 5 7
3 4 6 5 5 5 5 5 4 4 4 4 8 9 8 7 7 6 5 5 6 6 5 5 4 4 3 3 3 2 3 2 2 3 4 4 2 2 1 3 3 2 3 2 2 3 3 4 3 3 3 3 2 3 0 1 1 0 4 5 5 6 5
7 7 7 6 6 6 5 6 6 6 4 4 2 5 7 8 7 6 6 6 5 6 6 5 5 5 5 4 5 3 4 4 3 3 4 4 4 3 2 1 2 2 1 2 1 3 3 4 3 4 4 3 4 4 5 5 3 2 3 3 3 4 4
8 6 6 5 5 4 4 4 4 4 3 1 1 2 3 3 2 3 6 7 7 6 7 7 6 7 7 6 6 5 5 5 4 4 4 4 4 3 4 2 1 3 2 2 1 1 3 3 4 4 4 4 4 4 3 2 2 0 1 3 2 3 3
5 8 9 8 6 4 5 6 4 3 3 1 3 2 2 4 3 1 5 7 7 7 8 9 9 8 7 7 8 7 6 5 4 4 5 4 4 4 4 4 3 2 3 2 0 1 1 4 3 4 4 4 4 4 4 5 4 3 3 3 4 3 3
2 2 3 2 3 4 4 7 8 6 4 4 3 5 4 5 5 6 4 3 4 5 3 4 2 4 7 9 8 8 8 7 5 5 4 4 3 4 4 4 2 3 2 2 1 1 3 3 4 4 4 4 4 4 4 4 4 4 4 3 3 5 4
3 3 3 4 3 1 2 3 7 8 6 7 9 8 5 3 3 3 3 3 2 6 5 5 6 5 4 5 7 8 8 8 7 6 5 5 5 4 4 3 2 2 2 2 3 3 3 3 3 3 3 3 3 4 4 4 5 5 4 4 3 3 5
4 4 3 2 2 2 2 1 2 2 4 6 5 5 6 5 4 4 4 3 4 5 5 5 4 5 3 2 4 7 9 9 8 7 7 6 6 6 5 4 4 3 4 4 5 3 3 2 2 2 2 3 3 3 3 3 4 4 5 4 3 4 3
2 3 3 3 4 3 4 4 5 5 5 6 6 6 4 4 5 5 3 3 3 4 5 5 6 6 6 6 5 7 9 10 9 8 7 6 6 6 5 5 4 4 5 7 7 5 4 4 1 0 1 2 2 2 2 2 2 3 4 4 6 4 5
4 3 3 3 3 3 5 6 6 6 7 7 6 5 4 4 5 6 5 4 5 6 6 6 8 13 9 7 6 5 5 8 9 8 8 7 6 6 6 5 5 10 10 9 8 8 7 5 3 2 1 0 1 1 1 1 3 3 3 5 4 4 6
4 4 4 3 3 4 4 5 5 6 5 5 5 5 4 5 6 6 5 5 5 6 6 7 14 15 15 12 6 5 6 6 7 8 8 8 8 7 6 6 6 8 8 6 6 8 7 6 5 5 4 4 4 2 0 2 4 3 3 3 4 4 4
4 4 4 5 4 4 4 4 4 5 4 4 5 4 4 6 6 6 6 7 7 7 6 8 12 11 11 11 9 7 7 8 7 8 8 8 7 7 6 5 5 5 5 6 5 4 4 7 8 7 6 5 5 3 2 2 3 3 3 5 6 5 4
1 1 0 2 3 2 2 1 1 1 4 7 6 5 8 7 7 7 7 7 6 5 4 7 9 10 11 12 12 11 7 9 9 8 8 7 6 6 6 5 5 5 4 8 5 4 4 4 7 8 5 3 3 4 6 6 6 5 4 4 6 7 6
1 2 3 4 4 3 3 2 1 2 3 2 2 6 7 8 7 6 6 6 5 3 4 6 8 11 11 11 12 12 6 6 6 6 7 7 6 6 6 6 6 5 4 4 4 5 4 4 4 4 4 4 4 5 6 8 9 10 7 6 6 8 8
3 2 3 4 4 3 1 2 3 4 4 3 2 3 3 3 5 5 5 5 4 3 1 3 4 4 5 8 10 8 6 5 6 5 4 5 6 4 5 5 5 5 4 4 3 5 5 5 4 4 4 4 5 5 4 4 3 3 4 4 6 8 9
2 2 2 2 2 1 1 1 2 3 2 4 5 3 2 1 3 4 2 4 5 4 1 5 7 10 12 12 11 7 6 7 7 7 5 4 5 5 5 4 4 3 3 3 6 9 8 4 5 5 5 4 4 4 4 4 6 5 5 5 4 4 5
2 2 1 1 1 1 0 1 3 1 3 4 4 4 5 4 3 3 3 4 5 3 3 5 7 10 11 12 9 6 6 7 6 6 4 4 4 4 3 3 2 3 3 3 6 7 1 1 2 1 1 2 3 2 4 4 4 6 8 8 5 4 5
2 2 2 2 1 0 0 0 1 1 2 4 5 5 5 5 1 1 5 5 6 6 4 5 8 9 10 10 8 7 6 7 5 4 4 3 4 3 2 1 1 1 2 4 9 10 8 5 4 4 4 3 3 4 4 3 3 4 8 10 11 12 12
1 2 2 1 1 1 1 2 2 1 3 3 4 5 6 0 3 2 4 6 9 9 6 5 8 10 10 9 7 5 6 6 5 3 3 1 2 4 8 10 11 9 8 7 11 11 10 7 4 3 2 3 3 4 5 2 3 4 5 6 6 7 7
2 2 3 4 4 4 4 1 1 1 3 3 4 3 2 4 4 3 3 6 6 7 9 5 5 11 11 11 9 6 5 6 6 5 5 5 4 5 6 6 7 11 11 10 9 9 7 6 3 1 1 1 4 7 3 2 3 4 4 4 5 5 6
4 4 5 5 5 4 3 3 1 0 2 4 2 3 4 4 6 4 4 3 5 4 7 9 5 11 11 12 12 10 6 6 5 6 5 5 4 5 5 5 4 6 9 8 7 5 4 3 3 1 2 3 3 4 4 3 5 6 4 4 5 5 6
4 4 4 4 4 4 4 3 2 1 0 2 2 5 4 4 6 5 4 4 3 4 4 8 8 10 13 12 12 11 7 4 3 5 5 5 4 5 4 4 3 3 6 7 6 5 4 3 4 2 4 8 10 10 7 4 5 4 5 6 6 7 7
4 3 3 3 4 5 4 3 2 1 0 2 5 5 5 5 6 6 5 5 4 4 4 4 8 8 11 12 12 11 10 6 6 6 5 5 4 4 4 5 3 5 5 4 5 5 6 7 5 4 9 9 10 11 8 5 5 5 6 6 6 7 7
4 4 4 5 5 5 5 5 4 4 2 5 6 6 5 6 6 6 6 5 4 4 3 4 5 7 8 11 10 9 8 8 7 4 5 4 5 5 4 2 0 2 4 6 6 6 7 6 5 8 8 10 11 8 4 5 5 6 5 6 6 6 6
Wind_Direction
133 136 135 133 129 130 123 114 90 74 75 87 84 69 69 69 66 58 53 66 71 64 74 72 75 65 66 71 109 114 127 141 133 130 141 156 131 155 155 171 244 254 236 69 79 149 157 156 307 312 257 231 232 232 223 214 235 248 251 231 242 227 251
134 134 130 127 128 122 107 99 93 84 68 58 73 74 57 61 68 67 58 64 76 79 76 71 63 57 57 57 59 73 84 74 83 110 114 145 131 149 143 193 162 204 86 65 71 84 132 141 272 279 298 327 284 267 265 277 268 245 239 234 238 255 260
131 125 121 129 123 119 120 118 113 101 91 81 73 75 68 64 67 66 63 65 73 81 83 85 82 72 63 62 63 64 59 61 46 53 69 95 93 104 108 128 115 123 88 54 40 91 13 136 197 288 335 327 325 280 193 222 234 247 240 212 206 222 228
139 133 128 132 126 120 123 129 126 122 112 99 91 77 77 74 71 70 68 60 65 76 93 100 98 92 86 74 57 53 53 62 54 52 54 47 51 50 50 67 87 94 114 120 59 32 84 83 10 322 321 347 315 347 255 212 221 231 237 247 218 199 221
144 141 143 149 146 138 137 130 126 115 110 105 92 84 84 81 71 67 65 59 58 63 68 84 87 85 79 72 66 70 69 66 62 64 58 45 40 43 49 66 84 92 81 86 121 118 75 48 103 342 3 323 346 346 303 293 256 256 244 233 238 237 211
145 144 146 146 148 143 138 131 127 127 128 115 116 112 119 104 98 87 75 63 57 57 59 66 82 88 85 82 83 81 77 75 79 81 71 69 69 63 59 47 72 66 67 51 58 47 42 67 61 38 332 5 347 310 296 333 323 262 258 271 274 264 16
146 145 147 148 152 147 141 139 138 142 141 145 141 142 150 132 95 107 103 90 75 65 67 69 69 82 87 85 77 72 74 74 70 68 77 74 66 64 66 63 61 70 48 48 67 64 55 50 41 43 352 337 345 326 305 349 339 27 360 353 17 27 91
143 142 148 151 151 146 146 141 142 143 141 149 145 159 145 127 122 109 110 102 90 75 56 46 58 75 78 75 73 77 74 82 73 68 61 65 50 41 36 66 79 54 58 63 71 61 70 84 98 67 62 25 350 351 346 346 333 66 39 332 34 49 54
139 138 140 145 153 150 149 145 148 150 149 144 144 142 139 128 123 121 115 120 117 101 98 79 78 90 94 86 79 83 87 72 88 82 75 68 55 41 48 58 65 41 42 61 63 64 54 63 69 71 82 83 68 350 329 340 356 321 59 31 359 39 25
138 144 147 158 154 157 150 146 145 155 146 142 146 148 141 135 131 133 128 130 129 134 126 109 117 110 110 120 110 87 75 87 101 111 85 73 59 56 57 71 96 70 50 54 58 61 48 27 17 20 71 94 121 92 360 347 305 333 337 50 40 342 15
140 140 148 160 156 140 151 144 131 139 151 153 148 154 142 141 143 139 136 139 140 134 150 131 128 123 117 132 129 126 136 108 85 73 100 102 85 69 56 64 78 65 31 46 360 309 118 47 28 31 12 31 105 106 132 29 298 263 303 340 82 12 356
152 146 146 161 152 139 152 151 139 148 142 140 138 143 137 141 144 142 138 150 136 153 158 156 139 142 120 133 120 130 136 120 108 106 101 117 154 85 87 86 96 81 53 40 18 40 204 126 87 50 12 32 64 125 113 123 9 290 354 334 330 351 352
175 168 148 159 156 148 150 147 139 132 149 143 144 146 143 144 153 146 143 153 152 155 165 187 140 163 119 159 134 141 170 131 139 132 149 143 113 117 102 93 109 104 39 51 28 23 17 334 274 159 225 348 340 37 126 115 209 277 307 327 334 338 350
142 133 130 144 142 139 137 132 145 153 135 144 143 149 148 154 154 164 153 159 166 170 172 193 168 163 123 180 150 155 187 159 159 170 164 205 209 120 114 169 201 101 73 57 14 13 9 10 43 354 5 25 352 338 57 45 338 300 304 324 349 331 329
90 90 84 85 115 128 123 106 107 86 97 130 155 157 164 160 161 162 172 169 175 179 179 177 179 156 162 157 204 152 196 193 185 176 160 164 150 125 98 75 89 99 90 71 16 359 344 358 30 51 38 60 52 357 326 71 207 249 299 322 333 321 317
78 63 67 60 68 62 59 63 69 78 68 58 95 162 169 166 162 166 174 183 179 183 185 182 179 164 175 166 195 186 189 198 191 171 180 180 180 153 134 149 194 182 111 59 329 321 353 353 30 52 35 39 42 36 28 38 35 350 322 296 293 323 318
85 87 79 88 98 114 111 90 89 92 105 116 107 108 114 91 89 150 180 190 189 184 186 185 182 178 178 181 187 186 191 194 189 174 188 184 174 170 174 183 212 152 132 148 301 327 6 38 43 32 31 17 43 29 16 38 72 126 278 329 296 307 305
146 147 147 143 139 156 146 124 114 113 98 36 4 32 86 110 115 153 189 197 195 185 185 185 184 186 188 184 183 180 184 188 187 180 189 198 168 175 179 182 222 179 128 113 292 36 39 49 40 46 35 11 19 13 16 11 4 27 21 333 305 301 317
39 59 63 72 132 144 133 129 131 130 134 142 176 231 180 178 180 216 205 181 194 194 136 111 140 210 202 188 181 178 179 180 186 177 188 186 153 160 163 185 156 137 119 148 178 101 52 57 45 43 34 19 16 20 13 360 4 3 0 315 306 312 327
136 157 171 190 208 188 148 147 152 161 168 179 201 214 213 196 233 237 233 198 139 111 132 163 165 176 204 210 185 173 178 180 182 178 185 171 173 153 143 142 140 130 127 125 97 88 91 55 65 57 40 28 17 36 20 11 4 2 351 336 315 300 306
107 116 138 163 214 187 159 136 121 155 198 214 219 220 220 213 229 231 237 189 152 150 156 188 210 202 180 190 200 188 181 181 182 182 175 169 166 164 159 147 149 150 122 124 129 130 112 106 68 46 5 59 48 50 33 13 14 2 349 340 319 320 317
159 165 158 159 170 200 200 197 191 188 198 219 224 225 225 224 224 226 201 202 200 146 156 180 209 215 205 209 200 205 193 184 179 173 166 166 155 156 151 145 137 125 128 131 136 132 133 148 125 37 331 71 61 69 38 29 14 360 336 328 315 326 325
179 166 169 182 208 194 195 201 202 200 208 214 217 214 210 211 214 228 228 207 182 176 182 191 214 217 214 200 194 202 206 193 178 166 159 156 153 156 160 150 137 134 137 141 141 142 136 124 137 158 178 125 110 85 48 360 345 336 326 320 304 316 322
181 176 192 206 229 222 212 214 208 214 220 216 223 218 201 204 216 220 215 211 207 202 199 202 209 217 222 206 193 189 187 193 173 165 159 158 160 167 165 155 142 144 145 150 145 147 155 162 186 202 198 182 170 160 132 344 321 320 315 300 295 311 294
184 206 209 223 230 240 246 232 231 235 226 232 239 239 230 226 225 224 218 219 220 219 213 216 210 213 218 218 209 194 183 179 174 169 169 166 164 161 165 148 153 153 162 167 157 161 165 189 205 217 215 209 211 234 249 218 268 308 294 294 299 285 287
345 351 34 108 129 119 113 103 105 164 209 223 227 212 218 221 228 220 210 216 229 222 227 230 219 218 221 223 217 194 182 179 173 170 165 158 153 155 162 153 156 175 173 179 167 167 177 216 232 233 230 234 260 225 235 244 232 231 264 276 277 281 270
75 92 88 64 56 37 37 1 313 308 330 349 175 194 202 209 218 213 204 204 219 217 211 244 239 233 228 223 214 187 165 157 145 145 148 151 151 160 166 171 158 173 188 187 178 175 195 213 227 220 218 224 231 246 245 243 245 246 241 241 252 264 271
128 117 76 68 50 36 24 360 347 328 335 322 308 284 262 226 218 202 177 178 183 198 243 95 181 160 157 164 156 136 109 102 100 96 105 113 106 127 124 125 128 139 154 180 181 189 197 213 200 200 199 217 218 227 221 222 217 222 235 223 227 245 262
139 98 89 70 62 15 348 320 320 310 343 331 328 319 303 193 230 247 226 116 120 148 78 78 111 118 121 119 110 108 110 106 99 94 96 114 128 117 114 118 123 152 170 169 188 200 210 185 164 179 195 211 223 233 232 233 230 230 233 240 248 259 274
138 142 133 130 177 242 328 335 324 318 341 318 314 306 273 245 190 191 130 120 131 122 62 66 110 123 120 114 107 102 108 104 113 125 134 126 120 121 118 135 141 178 191 216 205 199 225 188 192 217 271 289 291 291 281 302 303 324 2 11 360 327 293
177 181 164 175 201 228 243 345 296 267 285 288 295 278 271 270 326 115 133 149 142 126 103 80 104 112 104 95 101 110 111 112 113 111 98 103 125 148 181 266 251 145 77 50 68 65 50 55 60 44 37 9 351 340 321 344 2 345 342 338 336 330 326
144 141 146 197 190 241 253 248 244 293 302 296 285 293 295 246 62 54 113 130 138 128 120 110 112 105 102 105 104 105 107 105 103 101 104 92 47 61 59 50 63 73 85 89 77 70 67 71 77 72 52 23 329 311 279 326 339 329 328 326 322 324 316
238 215 216 228 227 220 218 194 246 309 299 300 306 342 28 93 95 73 95 124 126 132 126 118 112 104 100 95 99 96 95 97 92 80 67 77 77 70 74 68 74 94 93 91 88 82 78 85 98 85 59 325 281 280 273 314 300 296 285 280 284 285 283
232 237 221 216 213 214 195 189 207 341 320 316 5 58 82 91 92 76 65 83 118 135 136 127 115 103 93 95 97 99 95 101 113 109 98 77 72 83 91 85 93 103 110 111 117 126 125 130 172 201 218 236 228 251 286 292 280 275 272 272 273 275 271
226 223 220 198 188 197 197 170 166 177 342 34 71 94 84 83 88 81 68 75 88 103 100 114 124 102 97 91 91 94 93 97 114 106 87 71 57 53 95 123 108 129 131 140 146 168 204 218 224 212 238 235 252 261 265 258 264 273 275 273 268 266 263
256 248 247 215 191 203 208 188 190 124 174 86 105 106 102 102 98 90 78 66 72 84 98 96 106 105 100 99 97 97 105 105 81 83 94 82 65 47 77 115 119 145 160 166 187 206 222 234 229 230 244 256 260 265 272 270 268 272 267 264 264 263 260
259 267 257 245 220 213 215 198 185 183 125 120 124 115 116 115 105 109 110 99 91 98 93 97 98 112 113 108 103 103 100 93 87 88 81 75 56 53 66 77 155 210 208 222 237 235 237 237 239 253 258 261 263 268 263 264 266 260 263 267 265 261 258